Milwaukee, WI

10:20 PM CST on February 11, 2016 (GMT -0600)
Gen Mitchell International

Weather History for KMKE - August, 2013

Change the Weather History Date:

Thursday, August 1, 2013

  Actual Average Record
Temperature  
Mean Temperature 71 °F 72 °F  
Max Temperature 79 °F 80 °F 103 °F (1988)
Min Temperature 63 °F 64 °F 49 °F (1947)
Degree Days  
Heating Degree Days 0 0  
Month to date heating degree days 0 0  
Since 1 June heating degree days 101 95  
Since 1 July heating degree days 14 11  
Cooling Degree Days 6 7  
Month to date cooling degree days 6 7  
Year to date cooling degree days 385 379  
Since 1 June cooling degree days 346 349  
Growing Degree Days 21 (Base 50)    
Moisture  
Dew Point 55 °F    
Average Humidity 61    
Maximum Humidity 87    
Minimum Humidity 35    
Precipitation  
Precipitation 0.00 in 0.12 in 2.78 in (1953)
Month to date precipitation 0.00 0.12  
Year to date precipitation 26.86 20.33  
Snow  
Snow 0.00 in 0.00 in 0.00 in ()
Month to date snowfall 0.0 0.0  
Since 1 June snowfall 0.0 0.0  
Since 1 July snowfall 0.0 0.0  
Snow Depth 0.00 in    
Sea Level Pressure  
Sea Level Pressure 29.95 in    
Wind  
Wind Speed 9 mph (WNW)    
Max Wind Speed 18 mph    
Max Gust Speed 24 mph    
Visibility 10 miles    
Events      
T = Trace of Precipitation, MM = Missing Value Source: NWS Daily Summary

Daily Weather History Graph

Daily Weather History Graph

Search for Another Location

Airport or City:

Trip Planner

Search our weather history database for the weather conditions in past years. The results will help you decide how hot, cold, wet, or windy it might be!

Date:

Astronomy

Aug. 01, 2013 Rise Set
Actual Time 5:42 AM CDT 8:12 PM CDT
Civil Twilight 5:10 AM CDT 8:44 PM CDT
Nautical Twilight 4:30 AM CDT 9:24 PM CDT
Astronomical Twilight 3:45 AM CDT 10:09 PM CDT
Moon 1:18 AM CDT (8/1) 4:21 PM CDT (8/1)
Length of Visible Light 15h 33m
Length of Day
14h 29m
Waning Crescent, 23% of the Moon is Illuminated
Aug 1
Waning Crescent
Aug 6
New
Aug 14
First Quarter
Aug 20
Full
Aug 28
Last Quarter

Hourly Weather History & Observations

Time (CDT) Temp. Dew Point Humidity Pressure Visibility Wind Dir Wind Speed Gust Speed Precip Events Conditions
12:52 AM 64.9 °F 60.1 °F 84% 29.96 in 10.0 mi West 5.8 mph - N/A   Partly Cloudy
1:52 AM 64.0 °F 59.0 °F 84% 29.95 in 10.0 mi West 5.8 mph - N/A   Scattered Clouds
2:52 AM 64.0 °F 60.1 °F 87% 29.94 in 10.0 mi West 5.8 mph - N/A   Partly Cloudy
3:52 AM 64.0 °F 60.1 °F 87% 29.94 in 10.0 mi West 6.9 mph - N/A   Clear
4:52 AM 64.0 °F 61.0 °F 90% 29.94 in 10.0 mi West 6.9 mph - N/A   Clear
5:52 AM 64.0 °F 60.1 °F 87% 29.94 in 10.0 mi WNW 5.8 mph - N/A   Partly Cloudy
6:52 AM 64.9 °F 60.1 °F 84% 29.95 in 10.0 mi WNW 5.8 mph - N/A   Partly Cloudy
7:52 AM 66.9 °F 59.0 °F 76% 29.96 in 10.0 mi NW 9.2 mph - N/A   Partly Cloudy
8:52 AM 70.0 °F 57.9 °F 65% 29.96 in 10.0 mi NW 6.9 mph - N/A   Partly Cloudy
9:52 AM 73.9 °F 55.9 °F 53% 29.96 in 10.0 mi NW 6.9 mph - N/A   Partly Cloudy
10:52 AM 75.0 °F 53.1 °F 46% 29.96 in 10.0 mi NW 9.2 mph - N/A   Partly Cloudy
11:52 AM 75.9 °F 52.0 °F 43% 29.96 in 10.0 mi NW 11.5 mph 19.6 mph N/A   Scattered Clouds
12:52 PM 77.0 °F 50.0 °F 39% 29.97 in 10.0 mi WNW 15.0 mph 21.9 mph N/A   Scattered Clouds
1:52 PM 77.0 °F 52.0 °F 42% 29.96 in 10.0 mi NW 13.8 mph 20.7 mph N/A   Partly Cloudy
2:52 PM 78.1 °F 51.1 °F 39% 29.96 in 10.0 mi WNW 17.3 mph 21.9 mph N/A   Scattered Clouds
3:52 PM 77.0 °F 50.0 °F 39% 29.95 in 10.0 mi West 11.5 mph - N/A   Scattered Clouds
4:52 PM 77.0 °F 48.9 °F 37% 29.94 in 10.0 mi NW 11.5 mph - N/A   Mostly Cloudy
5:52 PM 78.1 °F 48.9 °F 36% 29.93 in 10.0 mi WNW 11.5 mph 17.3 mph N/A   Scattered Clouds
6:52 PM 77.0 °F 48.9 °F 37% 29.93 in 10.0 mi WNW 10.4 mph - N/A   Scattered Clouds
7:52 PM 75.0 °F 51.1 °F 43% 29.93 in 10.0 mi West 5.8 mph - N/A   Scattered Clouds
8:52 PM 72.0 °F 53.1 °F 51% 29.93 in 10.0 mi WSW 4.6 mph - N/A   Scattered Clouds
9:52 PM 70.0 °F 54.0 °F 57% 29.94 in 10.0 mi WSW 5.8 mph - N/A   Partly Cloudy
10:52 PM 69.1 °F 55.0 °F 61% 29.93 in 10.0 mi WSW 5.8 mph - N/A   Partly Cloudy
11:52 PM 66.9 °F 55.9 °F 68% 29.91 in 10.0 mi SW 5.8 mph - N/A   Partly Cloudy